Flight Track Log - Related Links

Times and Time Zones

All times are in EDT time to prevent confusion due to time zone crossing. See the AWI3688 flight status page for this flight to view local times or setup timezone preferences in your user account.

Time Position Orientation Groundspeed Altitude Reporting Facility
EDT Latitude Longitude Course Direction KTS MPH feet Rate Location/Type
Wed 02:23:14 PM 42.7256 -73.8108 219° Southwest 161 185 1,300  Level Boston Center
Wed 02:23:38 PM 42.7089 -73.8161 193° South 172 198 2,000 2,000 Climbing Boston Center
Wed 02:24:26 PM 42.7061 -73.8811 267° West 230 265 3,700 2,000 Climbing Boston Center
Wed 02:25:00 PM 42.7334 -74.2584 270° West  Level FlightAware Approximate
Wed 02:25:26 PM 42.7153 -73.9689 278° West 243 280 5,600  Level Boston Center
Wed 02:26:00 PM 42.6766 -74.3785 220° Southwest  Level FlightAware Approximate
Wed 02:26:26 PM 42.7242 -74.0736 277° West 269 310 7,900  Level Boston Center
Wed 02:27:00 PM 42.5901 -74.4758 220° Southwest  Level FlightAware Approximate
Wed 02:27:26 PM 42.7350 -74.1842 278° West 297 342 9,900  Level Boston Center
Wed 02:28:00 PM 42.5067 -74.5777 219° Southwest  Level FlightAware Approximate
Wed 02:28:26 PM 42.7439 -74.2919 276° West 313 360 11,500  Level Boston Center
Wed 02:29:26 PM 42.7519 -74.4308 275° West 337 388 14,100 2,250 Climbing Boston Center
Wed 02:30:26 PM 42.7603 -74.5442 276° West 342 394 16,000 950 Climbing Boston Center
Wed 02:31:26 PM 42.7142 -74.6611 242° Southwest 326 375 16,000  Level Boston Center
Wed 02:32:26 PM 42.6200 -74.6861 191° South 299 344 16,000  Level Boston Center
Wed 02:33:26 PM 42.5144 -74.7469 203° Southwest 360 414 16,000 -50 Level Boston Center
Wed 02:34:26 PM 42.4281 -74.8031 206° Southwest 373 429 15,900 -50 Descending Boston Center
Wed 02:35:26 PM 42.3328 -74.8667 206° Southwest 378 435 15,900 31 Level Boston Center
Wed 02:37:40 PM 42.1142 -75.0119 206° Southwest 374 430 16,000  Climbing New York Center
Wed 02:38:40 PM 42.0239 -75.0897 213° Southwest 388 447 15,900 -50 Descending New York Center
Wed 02:39:41 PM 41.9294 -75.1644 210° Southwest 395 455 15,900  Level New York Center
Wed 02:40:42 PM 41.8372 -75.2392 211° Southwest 400 460 15,900  Level New York Center
Wed 02:41:42 PM 41.7536 -75.3058 211° Southwest 400 460 15,900 -661 Level New York Center
Wed 02:42:40 PM 41.6547 -75.3850 211° Southwest 395 455 14,600 -1,373 Descending New York Center
Wed 02:43:40 PM 41.5642 -75.4592 212° Southwest 395 455 13,200 -1,289 Descending New York Center
Wed 02:44:41 PM 41.4761 -75.5278 210° Southwest 390 449 12,000 -585 Descending New York Center
Wed 02:45:43 PM 41.3967 -75.5914 211° Southwest 377 434 12,000  Level New York Center
Wed 02:46:40 PM 41.3019 -75.6647 210° Southwest 377 434 12,000  Level New York Center
Wed 02:47:41 PM 41.2156 -75.6889 192° South 364 419 12,000  Level New York Center
Wed 02:48:42 PM 41.1050 -75.6889 180° South 362 417 12,000  Level New York Center
Wed 02:49:42 PM 41.0050 -75.6872 179° South 367 422 12,000  Level New York Center
Wed 02:50:42 PM 40.9031 -75.6881 180° South 372 428 12,000  Level New York Center
Wed 02:51:41 PM 40.7969 -75.6858 179° South 372 428 12,000  Level New York Center
Wed 02:52:42 PM 40.6947 -75.6842 179° South 378 435 12,000  Level New York Center
Wed 02:53:40 PM 40.6011 -75.6800 178° South 383 441 12,000 -254 Level New York Center
Wed 02:54:40 PM 40.5244 -75.5708 133° Southeast 347 399 11,500 -1,000 Descending New York Center
Wed 02:55:40 PM 40.4703 -75.4661 124° Southeast 352 405 10,000 -843 Descending New York Center
Wed 02:56:41 PM 40.4039 -75.4044 145° Southeast 316 364 9,800 -836 Descending New York Center
Wed 02:57:42 PM 40.3428 -75.3731 159° South 272 313 8,300 -1,513 Descending New York Center
Wed 02:58:40 PM 40.2706 -75.4008 196° South 257 296 6,800 -1,160 Descending New York Center
Wed 02:59:41 PM 40.1981 -75.4478 206° Southwest 280 322 6,000 -393 Descending New York Center
Wed 03:00:42 PM 40.1214 -75.4886 202° Southwest 287 330 6,000  Level New York Center
Wed 03:02:24 PM 40.0167 -75.5500 204° Southwest 229 264 6,000  Level Philadelphia TRACON
Wed 03:02:40 PM 39.9953 -75.5669 211° Southwest 251 289 6,000  Level New York Center
Wed 03:03:42 PM 39.9397 -75.5983 203° Southwest 245 282 6,000 -390 Level New York Center
Wed 03:04:43 PM 39.8781 -75.6264 199° South 239 275 5,200 -1,109 Descending New York Center
Wed 03:05:41 PM 39.8353 -75.6019 156° South 197 227 3,800 -1,307 Descending New York Center
Wed 03:06:24 PM 39.8167 -75.5500 115° Southeast 179 206 3,000 -466 Descending Philadelphia TRACON
Wed 03:07:24 PM 39.8167 -75.5000 90° East 174 200 3,000 -286 Level Philadelphia TRACON
Wed 03:08:30 PM 39.8333 -75.4333 72° East 172 198 2,400 -545 Descending Philadelphia TRACON

Login

Don't have an account? Register now (free) for customized features, flight alerts, and more!